Hailey, ID

9:09 PM MDT on April 24, 2017 (GMT -0600)
Friedman Memorial

Weather History for KSUN - December, 2013

Change the Weather History Date:

Sunday, December 8, 2013

  Actual Average Record
Temperature  
Mean Temperature -2 °F -  
Max Temperature 5 °F 34 °F 51 °F (1996)
Min Temperature -9 °F 16 °F -9 °F (2013)
Degree Days  
Heating Degree Days 67    
Moisture  
Dew Point -4 °F    
Average Humidity 87    
Maximum Humidity 92    
Minimum Humidity 77    
Precipitation  
Precipitation 0.00 in - - ()
Sea Level Pressure  
Sea Level Pressure 29.98 in    
Wind  
Wind Speed 5 mph (NNW)    
Max Wind Speed 14 mph    
Max Gust Speed -    
Visibility 7 miles    
Events Fog , Snow    
Averages and records for this station are not official NWS values.
T = Trace of Precipitation, MM = Missing Value Source: NWS Daily Summary

Daily Weather History Graph

Daily Weather History Graph

Search for Another Location

Airport or City:

Trip Planner

Search our weather history database for the weather conditions in past years. The results will help you decide how hot, cold, wet, or windy it might be!

Date:

Astronomy

Dec. 08, 2013 Rise Set
Actual Time 7:57 AM MST 5:00 PM MST
Civil Twilight 7:25 AM MST 5:33 PM MST
Nautical Twilight 6:49 AM MST 6:09 PM MST
Astronomical Twilight 6:14 AM MST 6:43 PM MST
Moon 12:11 PM MST (12/8) No Moon Set
Length of Visible Light 10h 07m
Length of Day
9h 03m
Waxing Crescent, 40% of the Moon is Illuminated
Dec 8
Waxing Crescent
Dec 9
First Quarter
Dec 17
Full
Dec 25
Last Quarter
Jan 1
New

Hourly Weather History & Observations

Time (MST) Temp. Windchill Dew Point Humidity Pressure Visibility Wind Dir Wind Speed Gust Speed Precip Events Conditions
12:15 AM 1.4 °F -11.3 °F -2.2 °F 85% 29.83 in 10.0 mi NW 6.9 mph - N/A   Clear
12:35 AM 5.0 °F -9.1 °F 1.4 °F 85% 29.83 in 10.0 mi NW 9.2 mph - N/A   Clear
12:55 AM 5.0 °F -8.1 °F 1.4 °F 85% 29.84 in 10.0 mi WNW 8.1 mph - N/A   Clear
1:15 AM 1.4 °F -6.2 °F -0.4 °F 92% 29.84 in 10.0 mi NW 3.5 mph - N/A   Clear
1:35 AM -0.4 °F - -4.0 °F 85% 29.85 in 10.0 mi Calm Calm - N/A   Clear
1:55 AM -0.4 °F - -2.2 °F 92% 29.86 in 10.0 mi Calm Calm - N/A   Scattered Clouds
2:15 AM 1.4 °F -8.3 °F -2.2 °F 85% 29.86 in 7.0 mi NNW 4.6 mph - N/A Snow Light Snow
2:35 AM 1.4 °F -6.2 °F -0.4 °F 92% 29.87 in 7.0 mi North 3.5 mph - N/A Snow Light Snow
2:55 AM 1.4 °F -8.3 °F -0.4 °F 92% 29.88 in 10.0 mi North 4.6 mph - N/A   Overcast
3:15 AM 3.2 °F -4.2 °F -0.4 °F 85% 29.88 in 10.0 mi WNW 3.5 mph - N/A   Overcast
3:35 AM 3.2 °F -6.2 °F 1.4 °F 92% 29.89 in 10.0 mi NW 4.6 mph - N/A   Overcast
3:55 AM 3.2 °F -7.8 °F -0.4 °F 85% 29.89 in 10.0 mi NW 5.8 mph - N/A   Overcast
4:15 AM 1.4 °F -8.3 °F -0.4 °F 92% 29.89 in 10.0 mi NNW 4.6 mph - N/A   Overcast
4:35 AM 1.4 °F - -0.4 °F 92% 29.90 in 0.2 mi Calm Calm - N/A Fog Light Freezing Fog
4:55 AM 1.4 °F -6.2 °F -2.2 °F 85% 29.91 in 0.8 mi NNW 3.5 mph - N/A   Overcast
5:15 AM -0.4 °F -8.3 °F -4.0 °F 85% 29.91 in 5.0 mi North 3.5 mph - N/A   Overcast
5:35 AM -0.4 °F -8.3 °F -4.0 °F 85% 29.92 in 0.8 mi North 3.5 mph - N/A   Overcast
5:55 AM -0.4 °F - -4.0 °F 85% 29.92 in 1.5 mi Calm Calm - N/A   Overcast
6:47 AM -2.2 °F - -7.6 °F 78% 29.95 in 7.0 mi Calm Calm - N/A   Overcast
7:47 AM -4.0 °F -17.8 °F -7.6 °F 85% 29.96 in 0.8 mi NW 6.9 mph - N/A   Overcast
8:25 AM -4.0 °F -16.3 °F -7.6 °F 85% 29.97 in 5.0 mi NW 5.8 mph - N/A   Mostly Cloudy
8:50 AM -5.8 °F -18.4 °F -9.4 °F 84% 29.98 in 5.0 mi NNW 5.8 mph - N/A   Mostly Cloudy
9:47 AM -2.2 °F - -7.6 °F 78% 29.99 in 5.0 mi Calm Calm - N/A   Mostly Cloudy
10:50 AM -0.4 °F - -2.2 °F 92% 30.00 in 7.0 mi Calm Calm - N/A   Mostly Cloudy
11:47 AM 3.2 °F -7.8 °F 1.4 °F 92% 29.99 in 7.0 mi SE 5.8 mph - N/A   Overcast
12:47 PM 3.2 °F -13.1 °F 1.4 °F 92% 29.98 in 7.0 mi SE 11.5 mph - N/A   Overcast
1:05 PM 3.2 °F -13.1 °F 1.4 °F 92% 29.98 in 1.0 mi SE 11.5 mph - N/A Snow Light Snow
1:47 PM 3.2 °F -14.6 °F 1.4 °F 92% 29.96 in 7.0 mi SE 13.8 mph - N/A   Overcast
2:47 PM 3.2 °F -13.1 °F 1.4 °F 92% 29.96 in 7.0 mi SE 11.5 mph - N/A   Mostly Cloudy
3:55 PM 1.4 °F -15.3 °F -0.4 °F 92% 29.98 in 4.0 mi SE 11.5 mph - N/A Snow Light Snow
4:47 PM -0.4 °F -14.7 °F -2.2 °F 92% 29.99 in 7.0 mi SE 8.1 mph - N/A   Mostly Cloudy
5:47 PM -0.4 °F - -4.0 °F 85% 30.01 in 7.0 mi Calm Calm - N/A   Mostly Cloudy
6:47 PM -2.2 °F - -5.8 °F 85% 30.03 in 7.0 mi Calm Calm - N/A   Scattered Clouds
7:47 PM -5.8 °F - -9.4 °F 84% 30.07 in 10.0 mi Calm Calm - N/A   Scattered Clouds
8:50 PM -7.6 °F - -11.2 °F 84% 30.10 in 10.0 mi Calm Calm - N/A   Scattered Clouds
9:50 PM -7.6 °F - -11.2 °F 84% 30.14 in 10.0 mi Calm Calm - N/A   Scattered Clouds
10:15 PM -7.6 °F -16.5 °F -9.4 °F 92% 30.14 in 10.0 mi NW 3.5 mph - N/A   Clear
10:35 PM -7.6 °F - -13.0 °F 77% 30.15 in 10.0 mi Calm Calm - N/A   Clear
10:47 PM -9.4 °F - -13.0 °F 84% 30.16 in 10.0 mi Calm Calm - N/A   Scattered Clouds
10:55 PM -7.6 °F - -11.2 °F 84% 30.16 in 10.0 mi Calm Calm - N/A   Clear
11:15 PM -7.6 °F -20.6 °F -11.2 °F 84% 30.18 in 10.0 mi NW 5.8 mph - N/A   Clear
11:35 PM -7.6 °F -23.4 °F -13.0 °F 77% 30.19 in 10.0 mi WNW 8.1 mph - N/A   Clear
11:55 PM -7.6 °F -23.4 °F -11.2 °F 84% 30.20 in 10.0 mi NW 8.1 mph - N/A   Clear